Terminal Aerodrome Forecast
Issued by NWS Milwaukee/Sullivan, WI

Home | Current Version | Previous Version | Text Only | Print | Product List | Glossary On
Versions: 1 2 3 4 5 6 7 8 9 10 11 12 13 14 15 16 17 18 19 20 21 22 23 24 25 26 27 28 29 30 31 32 33 34 35 36 37 38 39 40 41 42 43 44 45 46 47 48 49 50
000
FTUS43 KMKX 302037 AAC
TAFMSN
TAF AMD
KMSN 302037Z 3021/3118 29008KT P6SM VCSH SCT025 BKN070
     FM302200 28007KT P6SM BKN050
     FM302300 28005KT P6SM SCT040
     FM310300 00000KT P6SM SCT060
     FM310800 VRB03KT 1 1/2SM BR SCT060
     FM311000 VRB03KT 3/4SM BR SCT005
     FM311300 18004KT 3SM BR SCT010
     FM311400 18005KT P6SM SCT120=

USA.gov is the U.S. government's official web portal to all federal, state and local government web resources and services.